YD2CLX-17 Weather Reports


Display with metric or nautical units.
time (UTC)temp
F
wind
direction
speed
MPH
gust
MPH
rain 1hr
in
rain 24hr
in
rain mn
in
humidity
%
barometer
mb
20260504213055 82 36 2.0 2.0 0.00 0.00 0.00 92 1010.0
20260504211554 82 31 1.0 1.0 0.00 0.00 0.00 90 1010.0
20260504210056 83 31 1.0 1.0 0.00 0.00 0.00 92 1010.0
20260504204554 83 31 1.0 1.0 0.00 0.00 0.00 92 1010.0
20260504203055 83 31 1.0 1.0 0.00 0.00 0.00 92 1010.0
20260504201555 83 24 2.0 2.0 0.00 0.00 0.00 91 1010.0
20260504200057 83 24 2.0 2.0 0.00 0.00 0.00 92 1010.0
20260504194555 83 24 2.0 2.0 0.00 0.00 0.00 92 1010.0
20260504193055 83 24 2.0 2.0 0.00 0.00 0.00 93 1010.0
20260504191554 83 16 2.0 2.0 0.00 0.00 0.00 91 1010.0
20260504190056 83 16 2.0 2.0 0.00 0.00 0.00 93 1010.0
20260504184555 83 16 2.0 2.0 0.00 0.00 0.00 93 1010.0
20260504183055 84 16 2.0 2.0 0.00 0.00 0.00 94 1010.0
20260504181555 83 352 2.0 2.0 0.00 0.00 0.00 93 1011.0
20260504180059 83 352 2.0 2.0 0.00 0.00 0.00 93 1011.0
20260504174554 83 334 3.0 2.0 0.00 0.00 0.00 93 1011.0
20260504173055 83 334 3.0 2.0 0.00 0.00 0.00 93 1011.0
20260504171555 83 328 2.0 2.0 0.00 0.00 0.00 91 1011.0
20260504081511 85 190 3.0 3.0 0.00 0.00 0.00 80 1009.0
20260504050012 85 190 3.0 3.0 0.00 0.00 0.00 83 1011.0
20260504044511 85 190 3.0 3.0 0.00 0.00 0.00 83 1011.0
20260504043011 85 190 3.0 3.0 0.00 0.00 0.00 85 1011.0
20260504041511 85 190 3.0 3.0 0.00 0.00 0.00 85 1012.0
20260504040011 85 190 3.0 3.0 0.00 0.00 0.00 85 1012.0
20260504034511 85 190 3.0 3.0 0.00 0.00 0.00 85 1012.0
20260504033011 85 190 3.0 3.0 0.00 0.00 0.00 85 1012.0
20260504031512 85 190 3.0 3.0 0.00 0.00 0.00 85 1013.0
20260504030011 85 190 3.0 3.0 0.00 0.00 0.00 85 1013.0
20260504024511 85 190 3.0 3.0 0.00 0.00 0.00 85 1013.0
20260504023012 85 190 3.0 3.0 0.00 0.00 0.00 85 1013.0
20260504021511 85 190 3.0 3.0 0.00 0.00 0.00 85 1013.0
20260504020011 85 190 3.0 3.0 0.00 0.00 0.00 85 1013.0
20260504014511 85 190 3.0 3.0 0.00 0.00 0.00 85 1013.0
20260504013056 85 190 3.0 3.0 0.01 0.00 0.00 85 1013.0
20260504011557 85 191 3.0 2.0 0.00 0.00 0.00 87 1012.0
20260504010057 85 191 3.0 2.0 0.00 0.00 0.00 87 1013.0
20260504004556 84 191 3.0 2.0 0.00 0.00 0.00 88 1012.0
20260504003057 83 119 1.0 2.0 0.00 0.00 0.00 90 1012.0
20260504001555 83 123 1.0 2.0 0.00 0.00 0.00 90 1012.0
20260504000059 83 123 1.0 2.0 0.00 0.00 0.00 90 1012.0
20260503234556 83 115 1.0 2.0 0.00 0.00 0.00 91 1012.0
20260503233057 83 123 1.0 2.0 0.00 0.00 0.00 92 1012.0
20260503231556 82 73 2.0 3.0 0.00 0.00 0.00 93 1011.0
20260503230057 82 73 2.0 3.0 0.00 0.00 0.00 94 1011.0
20260503224556 82 73 2.0 3.0 0.00 0.00 0.00 95 1011.0
20260503223058 82 73 2.0 3.0 0.00 0.00 0.00 96 1011.0
20260503221556 82 79 2.0 3.0 0.00 0.00 0.00 95 1011.0
20260503220056 82 79 2.0 3.0 0.00 0.00 0.00 96 1011.0
20260503214556 82 79 2.0 3.0 0.00 0.00 0.00 96 1011.0